DLH9PK LKPR-EDDK

Flight info

Callsign DLH9PK
Flight time 0h 50m
Altitude 34000
Route BALTU DCT DONAD DCT RAPET T843 VELIS DCT MASEK T841 ERNEP ERNEP1B
Aircraft A20N/M-SDE2E3FGHIRWXY/LB1

Departure

Time 2026-05-06 17:37
Airport Václav Havel Airport Prague (LKPR)

Arrival

Time 2026-05-06 18:27
Airport Cologne Bonn Airport (EDDK)
Time Latitude Longitude Altitude Speed Heading
2026-05-06 17:09 50.10437 14.26580 1255 ft 0 kts 33°
2026-05-06 17:18 50.10435 14.26578 1255 ft 0 kts 33°
2026-05-06 17:18 50.10423 14.26568 1255 ft 2 kts 14°
2026-05-06 17:19 50.10408 14.26565 1255 ft 2 kts 357°
2026-05-06 17:19 50.10394 14.26569 1255 ft 2 kts 339°
2026-05-06 17:19 50.10381 14.26580 1255 ft 2 kts 320°
2026-05-06 17:19 50.10373 14.26592 1255 ft 0 kts 306°
2026-05-06 17:20 50.10369 14.26601 1255 ft 0 kts 303°
2026-05-06 17:25 50.10376 14.26585 1255 ft 4 kts 303°
2026-05-06 17:25 50.10402 14.26529 1255 ft 8 kts 311°
2026-05-06 17:25 50.10448 14.26443 1255 ft 12 kts 304°
2026-05-06 17:25 50.10496 14.26336 1255 ft 11 kts 304°
2026-05-06 17:26 50.10530 14.26248 1255 ft 10 kts 288°
2026-05-06 17:26 50.10548 14.26173 1255 ft 6 kts 300°
2026-05-06 17:26 50.10558 14.26147 1255 ft 0 kts 302°
2026-05-06 17:27 50.10560 14.26143 1255 ft 1 kts 302°
2026-05-06 17:27 50.10582 14.26068 1255 ft 12 kts 268°
2026-05-06 17:27 50.10554 14.25994 1255 ft 11 kts 216°
2026-05-06 17:27 50.10472 14.26035 1255 ft 16 kts 128°
2026-05-06 17:28 50.10396 14.26189 1255 ft 18 kts 127°
2026-05-06 17:28 50.10317 14.26356 1255 ft 19 kts 127°
2026-05-06 17:28 50.10230 14.26534 1255 ft 21 kts 127°
2026-05-06 17:28 50.10140 14.26720 1255 ft 22 kts 127°
2026-05-06 17:29 50.10047 14.26912 1255 ft 22 kts 127°
2026-05-06 17:29 50.09949 14.27115 1255 ft 23 kts 126°
2026-05-06 17:29 50.09848 14.27317 1255 ft 24 kts 132°
2026-05-06 17:29 50.09729 14.27503 1255 ft 24 kts 135°
2026-05-06 17:30 50.09605 14.27691 1255 ft 25 kts 136°
2026-05-06 17:30 50.09482 14.27880 1255 ft 25 kts 135°
2026-05-06 17:30 50.09356 14.28073 1255 ft 25 kts 135°
2026-05-06 17:30 50.09259 14.28222 1255 ft 11 kts 135°
2026-05-06 17:31 50.09215 14.28274 1255 ft 7 kts 156°
2026-05-06 17:31 50.09182 14.28281 1255 ft 4 kts 185°
2026-05-06 17:31 50.09150 14.28262 1255 ft 2 kts 207°
2026-05-06 17:31 50.09143 14.28255 1255 ft 0 kts 212°
2026-05-06 17:32 50.09142 14.28255 1255 ft 0 kts 212°
2026-05-06 17:35 50.09120 14.28227 1255 ft 11 kts 225°
2026-05-06 17:35 50.09091 14.28084 1255 ft 11 kts 283°
2026-05-06 17:35 50.09101 14.28052 1255 ft 0 kts 305°
2026-05-06 17:36 50.09109 14.28036 1255 ft 0 kts 305°
2026-05-06 17:36 50.09109 14.28035 1255 ft 1 kts 305°
2026-05-06 17:36 50.09191 14.27870 1255 ft 53 kts 307°
2026-05-06 17:36 50.09582 14.27063 1255 ft 128 kts 307°
2026-05-06 17:37 50.10207 14.25783 1603 ft 155 kts 307°
2026-05-06 17:37 50.10845 14.24463 2275 ft 158 kts 307°
2026-05-06 17:37 50.11504 14.23091 3010 ft 160 kts 308°
2026-05-06 17:37 50.12178 14.21684 3626 ft 171 kts 308°
2026-05-06 17:38 50.12924 14.20150 4181 ft 188 kts 307°
2026-05-06 17:38 50.13745 14.18455 4714 ft 204 kts 306°
2026-05-06 17:38 50.14637 14.16603 4981 ft 227 kts 305°
2026-05-06 17:38 50.15670 14.14447 4940 ft 261 kts 305°
2026-05-06 17:39 50.16781 14.12132 4971 ft 269 kts 305°
2026-05-06 17:39 50.17779 14.09685 4971 ft 272 kts 288°
2026-05-06 17:39 50.18048 14.06753 5405 ft 280 kts 269°
2026-05-06 17:39 50.18014 14.03755 6573 ft 275 kts 267°
2026-05-06 17:40 50.17968 14.00805 7570 ft 276 kts 268°
2026-05-06 17:40 50.17947 13.97797 8472 ft 281 kts 268°
2026-05-06 17:40 50.17949 13.94760 9366 ft 285 kts 269°
2026-05-06 17:40 50.17971 13.91643 10238 ft 290 kts 269°
2026-05-06 17:41 50.18001 13.88484 10779 ft 305 kts 269°
2026-05-06 17:41 50.18038 13.85052 11230 ft 324 kts 269°
2026-05-06 17:41 50.18081 13.81446 11716 ft 340 kts 269°
2026-05-06 17:41 50.18127 13.77751 12475 ft 346 kts 268°
2026-05-06 17:42 50.18176 13.73984 13323 ft 349 kts 268°
2026-05-06 17:42 50.18222 13.70199 14122 ft 352 kts 268°
2026-05-06 17:42 50.18267 13.66413 14886 ft 356 kts 268°
2026-05-06 17:42 50.18312 13.62533 15359 ft 358 kts 268°
2026-05-06 17:43 50.18356 13.58659 15785 ft 360 kts 268°
2026-05-06 17:43 50.18398 13.54679 16219 ft 367 kts 268°
2026-05-06 17:43 50.18440 13.50733 16641 ft 371 kts 268°
2026-05-06 17:43 50.18482 13.46675 17071 ft 373 kts 268°
2026-05-06 17:44 50.18522 13.42633 17498 ft 375 kts 268°
2026-05-06 17:44 50.18561 13.38586 17924 ft 377 kts 268°
2026-05-06 17:44 50.18599 13.34448 18356 ft 379 kts 267°
2026-05-06 17:44 50.18634 13.30353 18782 ft 380 kts 267°
2026-05-06 17:45 50.18668 13.26233 19209 ft 382 kts 267°
2026-05-06 17:45 50.18701 13.22123 19632 ft 384 kts 267°
2026-05-06 17:45 50.18734 13.17907 20064 ft 386 kts 267°
2026-05-06 17:45 50.18765 13.13722 20491 ft 388 kts 267°
2026-05-06 17:46 50.18794 13.09548 20915 ft 390 kts 267°
2026-05-06 17:46 50.18822 13.05304 21394 ft 394 kts 267°
2026-05-06 17:46 50.18849 13.01001 22045 ft 396 kts 267°
2026-05-06 17:46 50.18874 12.96725 22656 ft 398 kts 267°
2026-05-06 17:47 50.18899 12.92388 23231 ft 401 kts 267°
2026-05-06 17:47 50.18921 12.88059 23782 ft 404 kts 267°
2026-05-06 17:47 50.18942 12.83649 24318 ft 407 kts 267°
2026-05-06 17:47 50.18963 12.79225 24834 ft 410 kts 267°
2026-05-06 17:48 50.18983 12.74809 25333 ft 413 kts 267°
2026-05-06 17:48 50.19000 12.70346 25822 ft 415 kts 267°
2026-05-06 17:48 50.19015 12.65776 26302 ft 418 kts 267°
2026-05-06 17:48 50.19029 12.61251 26756 ft 420 kts 266°
2026-05-06 17:49 50.19040 12.56734 27194 ft 423 kts 266°
2026-05-06 17:49 50.19049 12.52133 27621 ft 425 kts 266°
2026-05-06 17:49 50.19056 12.47536 28013 ft 427 kts 266°
2026-05-06 17:49 50.19065 12.42838 28382 ft 430 kts 267°
2026-05-06 17:50 50.19176 12.38211 28723 ft 434 kts 270°
2026-05-06 17:50 50.19463 12.33496 29053 ft 438 kts 272°
2026-05-06 17:50 50.19940 12.28729 29385 ft 442 kts 275°
2026-05-06 17:50 50.20591 12.24053 29682 ft 446 kts 278°
2026-05-06 17:51 50.21321 12.19365 30009 ft 447 kts 278°
2026-05-06 17:51 50.22067 12.14669 30396 ft 445 kts 278°
2026-05-06 17:51 50.22813 12.09963 30817 ft 443 kts 278°
2026-05-06 17:51 50.23535 12.05377 31241 ft 440 kts 278°
2026-05-06 17:52 50.24260 12.00750 31668 ft 437 kts 278°
2026-05-06 17:52 50.24974 11.96173 32074 ft 434 kts 278°
2026-05-06 17:52 50.25690 11.91580 32425 ft 433 kts 278°
2026-05-06 17:52 50.26405 11.86985 32714 ft 432 kts 278°
2026-05-06 17:53 50.27110 11.82437 32979 ft 432 kts 278°
2026-05-06 17:53 50.27814 11.77885 33227 ft 432 kts 278°
2026-05-06 17:53 50.28514 11.73338 33469 ft 432 kts 278°
2026-05-06 17:53 50.29222 11.68723 33698 ft 432 kts 278°
2026-05-06 17:54 50.30618 11.59586 33773 ft 433 kts 278°
2026-05-06 17:54 50.31993 11.50413 33776 ft 434 kts 278°
2026-05-06 17:55 50.33352 11.41245 33778 ft 435 kts 278°
2026-05-06 17:55 50.34715 11.31999 33778 ft 435 kts 278°
2026-05-06 17:56 50.36064 11.22794 33776 ft 436 kts 278°
2026-05-06 17:56 50.37426 11.13495 33777 ft 437 kts 278°
2026-05-06 17:57 50.38775 11.04225 33777 ft 438 kts 278°
2026-05-06 17:57 50.40122 10.94900 33777 ft 439 kts 278°
2026-05-06 17:58 50.41449 10.85644 33777 ft 439 kts 278°
2026-05-06 17:58 50.42784 10.76265 33593 ft 441 kts 278°
2026-05-06 17:59 50.43450 10.71570 33342 ft 441 kts 278°
2026-05-06 17:59 50.44116 10.66923 33094 ft 443 kts 278°
2026-05-06 17:59 50.44806 10.62161 32840 ft 444 kts 278°
2026-05-06 17:59 50.45487 10.57452 32591 ft 446 kts 278°
2026-05-06 18:00 50.46256 10.52722 32340 ft 449 kts 281°
2026-05-06 18:00 50.47180 10.48035 32090 ft 452 kts 284°
2026-05-06 18:00 50.48258 10.43430 31851 ft 455 kts 287°
2026-05-06 18:00 50.49513 10.38846 31781 ft 458 kts 290°
2026-05-06 18:01 50.52214 10.29800 31779 ft 460 kts 290°
2026-05-06 18:01 50.54943 10.20730 31777 ft 459 kts 290°
2026-05-06 18:02 50.57674 10.11597 31777 ft 459 kts 290°
2026-05-06 18:02 50.60377 10.02509 31777 ft 460 kts 290°
2026-05-06 18:03 50.63065 9.93426 31567 ft 454 kts 290°
2026-05-06 18:03 50.64393 9.88935 31316 ft 452 kts 290°
2026-05-06 18:03 50.65718 9.84439 31063 ft 452 kts 290°
2026-05-06 18:04 50.67036 9.79952 30614 ft 454 kts 291°
2026-05-06 18:04 50.68362 9.75428 29899 ft 456 kts 291°
2026-05-06 18:04 50.69688 9.70897 29123 ft 455 kts 291°
2026-05-06 18:04 50.71001 9.66406 28596 ft 449 kts 291°
2026-05-06 18:05 50.72308 9.61938 28058 ft 444 kts 291°
2026-05-06 18:05 50.73629 9.57614 27518 ft 441 kts 294°
2026-05-06 18:05 50.75007 9.53286 26963 ft 437 kts 294°
2026-05-06 18:05 50.76372 9.49022 26414 ft 433 kts 294°
2026-05-06 18:06 50.77712 9.44834 25870 ft 429 kts 294°
2026-05-06 18:06 50.79059 9.40614 25320 ft 425 kts 295°
2026-05-06 18:06 50.80384 9.36449 24770 ft 421 kts 295°
2026-05-06 18:06 50.81685 9.32349 24224 ft 418 kts 294°
2026-05-06 18:07 50.82982 9.28255 23674 ft 415 kts 294°
2026-05-06 18:07 50.84259 9.24220 23128 ft 412 kts 294°
2026-05-06 18:07 50.85531 9.20194 22581 ft 408 kts 294°
2026-05-06 18:07 50.86795 9.16186 22031 ft 405 kts 294°
2026-05-06 18:08 50.88039 9.12229 21487 ft 402 kts 294°
2026-05-06 18:08 50.89277 9.08288 20936 ft 400 kts 294°
2026-05-06 18:08 50.90505 9.04368 20385 ft 397 kts 294°
2026-05-06 18:08 50.91724 9.00470 19834 ft 394 kts 294°
2026-05-06 18:09 50.92932 8.96601 19285 ft 391 kts 294°
2026-05-06 18:09 50.94130 8.92765 18741 ft 388 kts 294°
2026-05-06 18:09 50.95340 8.88958 18207 ft 385 kts 295°
2026-05-06 18:09 50.96558 8.85180 17672 ft 382 kts 295°
2026-05-06 18:10 50.97749 8.81481 17138 ft 379 kts 295°
2026-05-06 18:10 50.98933 8.77794 16603 ft 376 kts 295°
2026-05-06 18:10 51.00124 8.74075 16064 ft 373 kts 295°
2026-05-06 18:10 51.01049 8.70293 15513 ft 368 kts 282°
2026-05-06 18:11 51.01329 8.66318 14994 ft 362 kts 268°
2026-05-06 18:11 51.01047 8.62416 14505 ft 357 kts 260°
2026-05-06 18:11 51.00613 8.58522 13979 ft 354 kts 259°
2026-05-06 18:11 51.00171 8.54728 13464 ft 352 kts 259°
2026-05-06 18:12 50.99731 8.50923 12944 ft 349 kts 259°
2026-05-06 18:12 50.99303 8.47172 12431 ft 347 kts 259°
2026-05-06 18:12 50.98880 8.43428 11918 ft 344 kts 259°
2026-05-06 18:12 50.98457 8.39670 11401 ft 342 kts 259°
2026-05-06 18:13 50.98041 8.35987 10892 ft 339 kts 259°
2026-05-06 18:13 50.97628 8.32333 10410 ft 336 kts 258°
2026-05-06 18:13 50.97086 8.28803 10036 ft 329 kts 252°
2026-05-06 18:13 50.96287 8.25458 9822 ft 316 kts 245°
2026-05-06 18:14 50.95346 8.22450 9822 ft 286 kts 243°
2026-05-06 18:14 50.94441 8.19703 9820 ft 280 kts 242°
2026-05-06 18:14 50.93537 8.16981 9818 ft 279 kts 242°
2026-05-06 18:14 50.92633 8.14255 9816 ft 279 kts 242°
2026-05-06 18:15 50.91736 8.11548 9815 ft 279 kts 242°
2026-05-06 18:15 50.90833 8.08823 9814 ft 279 kts 242°
2026-05-06 18:15 50.89939 8.06125 9808 ft 278 kts 242°
2026-05-06 18:15 50.89036 8.03399 9816 ft 277 kts 243°
2026-05-06 18:16 50.88144 8.00712 9821 ft 277 kts 243°
2026-05-06 18:16 50.87244 7.98005 9825 ft 278 kts 243°
2026-05-06 18:16 50.86344 7.95300 9831 ft 278 kts 243°
2026-05-06 18:16 50.85442 7.92587 9836 ft 278 kts 243°
2026-05-06 18:17 50.84534 7.89856 9842 ft 278 kts 243°
2026-05-06 18:17 50.83638 7.87170 9846 ft 278 kts 243°
2026-05-06 18:17 50.82733 7.84458 9825 ft 279 kts 243°
2026-05-06 18:17 50.81822 7.81733 9304 ft 285 kts 243°
2026-05-06 18:18 50.80906 7.78993 8714 ft 281 kts 243°
2026-05-06 18:18 50.80006 7.76309 8110 ft 272 kts 243°
2026-05-06 18:18 50.79139 7.73726 7513 ft 265 kts 243°
2026-05-06 18:18 50.78283 7.71175 6909 ft 260 kts 243°
2026-05-06 18:19 50.77449 7.68695 6307 ft 255 kts 243°
2026-05-06 18:19 50.76625 7.66243 5704 ft 251 kts 243°
2026-05-06 18:19 50.75816 7.63844 5106 ft 248 kts 244°
2026-05-06 18:19 50.75009 7.61452 4503 ft 246 kts 244°
2026-05-06 18:20 50.74211 7.59087 3903 ft 245 kts 244°
2026-05-06 18:20 50.73410 7.56714 3323 ft 243 kts 244°
2026-05-06 18:20 50.72623 7.54388 3025 ft 242 kts 245°
2026-05-06 18:20 50.71888 7.52048 2990 ft 233 kts 251°
2026-05-06 18:21 50.71430 7.49657 2980 ft 217 kts 263°
2026-05-06 18:21 50.71196 7.47454 2964 ft 193 kts 266°
2026-05-06 18:21 50.71015 7.45392 3040 ft 188 kts 266°
2026-05-06 18:21 50.70838 7.43324 3079 ft 188 kts 266°
2026-05-06 18:22 50.70660 7.41290 3026 ft 188 kts 266°
2026-05-06 18:22 50.70588 7.39253 2986 ft 184 kts 285°
2026-05-06 18:22 50.71141 7.37484 2997 ft 180 kts 310°
2026-05-06 18:22 50.71994 7.36034 2998 ft 178 kts 320°
2026-05-06 18:23 50.72918 7.34750 2996 ft 178 kts 321°
2026-05-06 18:23 50.73851 7.33478 2993 ft 179 kts 321°
2026-05-06 18:23 50.74788 7.32162 2990 ft 181 kts 321°
2026-05-06 18:23 50.75720 7.30823 2913 ft 180 kts 319°
2026-05-06 18:24 50.76640 7.29481 2683 ft 178 kts 320°
2026-05-06 18:24 50.77537 7.28168 2450 ft 178 kts 319°
2026-05-06 18:24 50.78447 7.26838 2209 ft 175 kts 319°
2026-05-06 18:24 50.79316 7.25570 1964 ft 163 kts 320°
2026-05-06 18:25 50.80107 7.24417 1757 ft 148 kts 319°
2026-05-06 18:25 50.80826 7.23374 1554 ft 133 kts 317°
2026-05-06 18:25 50.81485 7.22419 1372 ft 127 kts 318°
2026-05-06 18:25 50.82134 7.21476 1218 ft 127 kts 319°
2026-05-06 18:26 50.82787 7.20532 1064 ft 126 kts 318°
2026-05-06 18:26 50.83430 7.19600 902 ft 126 kts 317°
2026-05-06 18:26 50.84078 7.18658 724 ft 125 kts 318°
2026-05-06 18:26 50.84720 7.17726 557 ft 125 kts 317°
2026-05-06 18:27 50.85354 7.16796 392 ft 125 kts 319°
2026-05-06 18:27 50.85991 7.15873 295 ft 122 kts 317°
2026-05-06 18:27 50.86494 7.15154 278 ft 67 kts 318°
2026-05-06 18:27 50.86762 7.14770 268 ft 38 kts 317°
2026-05-06 18:28 50.86866 7.14579 263 ft 14 kts 281°
2026-05-06 18:28 50.86877 7.14431 260 ft 12 kts 279°
2026-05-06 18:28 50.86891 7.14291 257 ft 14 kts 279°
2026-05-06 18:28 50.86908 7.14151 256 ft 12 kts 283°
2026-05-06 18:29 50.86958 7.14024 253 ft 15 kts 317°
2026-05-06 18:29 50.87042 7.13907 251 ft 16 kts 317°
2026-05-06 18:29 50.87126 7.13783 249 ft 15 kts 317°
2026-05-06 18:29 50.87208 7.13666 247 ft 16 kts 317°
2026-05-06 18:30 50.87293 7.13542 246 ft 17 kts 317°
2026-05-06 18:30 50.87391 7.13400 245 ft 22 kts 318°
2026-05-06 18:30 50.87526 7.13205 245 ft 24 kts 317°
2026-05-06 18:30 50.87659 7.13012 248 ft 22 kts 317°
2026-05-06 18:31 50.87727 7.12912 248 ft 10 kts 317°
2026-05-06 18:31 50.87741 7.12893 248 ft 0 kts 317°
2026-05-06 18:32 50.87743 7.12890 248 ft 3 kts 317°
2026-05-06 18:32 50.87779 7.12833 248 ft 11 kts 304°
2026-05-06 18:33 50.87788 7.12705 248 ft 12 kts 284°
2026-05-06 18:33 50.87809 7.12635 248 ft 5 kts 309°
2026-05-06 18:33 50.87850 7.12581 246 ft 4 kts 282°
2026-05-06 18:33 50.87865 7.12524 245 ft 5 kts 288°
2026-05-06 18:34 50.87872 7.12486 244 ft 2 kts 287°
2026-05-06 18:34 50.87877 7.12463 243 ft 3 kts 287°
2026-05-06 18:34 50.87879 7.12455 243 ft 0 kts 287°